Gainesville, GA

11:47 PM EDT on May 24, 2017 (GMT -0400)
Gilmer Memorial

Weather History for KGVL - September, 2011

Change the Weather History Date:

Sunday, September 11, 2011

  Actual Average Record
Temperature  
Mean Temperature 70 °F 74 °F  
Max Temperature 84 °F 82 °F 93 °F (1933)
Min Temperature 59 °F 65 °F 46 °F (1976)
Degree Days  
Heating Degree Days 0 0  
Month to date heating degree days 0  
Since 1 July heating degree days 0  
Cooling Degree Days 6 9  
Month to date cooling degree days 109  
Year to date cooling degree days 1435  
Growing Degree Days 20 (Base 50)    
Moisture  
Dew Point 53 °F    
Average Humidity 57    
Maximum Humidity 87    
Minimum Humidity 32    
Precipitation  
Precipitation 0.00 in 0.17 in 1.80 in (1975)
Month to date precipitation 1.61  
Year to date precipitation 37.86  
Sea Level Pressure  
Sea Level Pressure 30.07 in    
Wind  
Wind Speed 3 mph (NW)    
Max Wind Speed 10 mph    
Max Gust Speed -    
Visibility 10 miles    
Events      
T = Trace of Precipitation, MM = Missing Value Source: NWS Daily Summary

Daily Weather History Graph

Daily Weather History Graph

Search for Another Location

Airport or City:

Trip Planner

Search our weather history database for the weather conditions in past years. The results will help you decide how hot, cold, wet, or windy it might be!

Date:

Astronomy

Sep. 11, 2011 Rise Set
Actual Time 7:15 AM EDT 7:47 PM EDT
Civil Twilight 6:50 AM EDT 8:13 PM EDT
Nautical Twilight 6:20 AM EDT 8:42 PM EDT
Astronomical Twilight 5:50 AM EDT 9:13 PM EDT
Moon 7:11 PM EDT (9/11) 6:33 AM EDT (9/11)
Length of Visible Light 13h 22m
Length of Day
12h 32m
Full, 100% of the Moon is Illuminated
Sep 11
Full
Sep 12
Full
Sep 20
Last Quarter
Sep 27
New
Oct 3
First Quarter

Hourly Weather History & Observations

Time (EDT) Temp. Dew Point Humidity Pressure Visibility Wind Dir Wind Speed Gust Speed Precip Events Conditions
12:53 AM 64.0 °F 55.9 °F 75% 30.05 in 10.0 mi Calm Calm - N/A   Clear
1:53 AM 63.0 °F 57.0 °F 81% 30.05 in 10.0 mi Calm Calm - N/A   Clear
2:53 AM 63.0 °F 55.9 °F 78% 30.05 in 10.0 mi NW 3.5 mph - N/A   Clear
3:53 AM 61.0 °F 57.0 °F 87% 30.05 in 10.0 mi NNW 3.5 mph - N/A   Clear
4:53 AM 61.0 °F 55.0 °F 81% 30.05 in 10.0 mi Calm Calm - N/A   Clear
5:53 AM 59.0 °F 54.0 °F 83% 30.06 in 10.0 mi Calm Calm - N/A   Clear
6:53 AM 60.1 °F 54.0 °F 80% 30.07 in 10.0 mi Calm Calm - N/A   Clear
7:53 AM 61.0 °F 55.0 °F 81% 30.09 in 10.0 mi NNW 3.5 mph - N/A   Clear
8:53 AM 66.9 °F 55.0 °F 66% 30.10 in 10.0 mi NNW 3.5 mph - N/A   Clear
9:53 AM 71.1 °F 54.0 °F 55% 30.11 in 10.0 mi NNW 4.6 mph - N/A   Clear
10:53 AM 77.0 °F 54.0 °F 45% 30.11 in 10.0 mi North 3.5 mph - N/A   Clear
11:53 AM 79.0 °F 52.0 °F 39% 30.11 in 10.0 mi NNW 8.1 mph - N/A   Clear
12:53 PM 80.1 °F 48.0 °F 32% 30.10 in 10.0 mi WNW 8.1 mph - N/A   Clear
1:53 PM 81.0 °F 50.0 °F 34% 30.09 in 10.0 mi WNW 10.4 mph - N/A   Clear
3:53 PM 82.9 °F 50.0 °F 32% 30.05 in 10.0 mi Variable 4.6 mph - N/A   Partly Cloudy
4:53 PM 82.9 °F 51.1 °F 33% 30.04 in 10.0 mi West 4.6 mph - N/A   Scattered Clouds
5:53 PM 82.0 °F 50.0 °F 33% 30.04 in 10.0 mi West 8.1 mph - N/A   Clear
6:53 PM 80.1 °F 52.0 °F 38% 30.04 in 10.0 mi SW 4.6 mph - N/A   Scattered Clouds
7:53 PM 77.0 °F 54.0 °F 45% 30.06 in 10.0 mi WNW 8.1 mph - N/A   Clear
8:53 PM 73.9 °F 53.1 °F 48% 30.06 in 10.0 mi West 3.5 mph - N/A   Clear
9:53 PM 73.0 °F 53.1 °F 49% 30.08 in 10.0 mi NW 3.5 mph - N/A   Clear
10:53 PM 71.1 °F 54.0 °F 55% 30.09 in 10.0 mi WNW 3.5 mph - N/A   Clear
11:53 PM 70.0 °F 55.0 °F 59% 30.09 in 10.0 mi NW 4.6 mph - N/A   Clear